Home   Weather   Moroni   Past weeks

Flag for Comoros Past Weather in Moroni, Comoros — Yesterday and Last 2 Weeks

Now
82 °F

Passing clouds.


Feels Like: 88 °F
Forecast: 71 / 85 °F
Wind: 12 mph from Southwest

Location: Hahaya International Airport

Current Time: Sep 25, 2016 at 10:21:45 AM

Latest Report: Sep 25, 2016 at 10:00 AM


Visibility: N/A

Pressure: 30.01 "Hg

Humidity: 74%

Dew Point: 73 °F

Location of MoroniLocation

Past Weather in Moroni — Graph

°F

Moroni Temperature Yesterday

Maximum temperature yesterday: 81 °F (at 10:00 AM)
Minimum temperature yesterday: 70 °F (at 4:00 AM)
Average temperature yesterday: 77 °F

High & Low Weather Summary for the Past Weeks

 TemperatureHumidityPressure
High86 °F (Sep 17, 1:00 PM)94% (Sep 10, 7:00 PM)30.12 "Hg (Sep 10, 7:00 PM)
Low63 °F (Sep 13, 2:00 AM)45% (Sep 17, 11:00 AM)29.86 "Hg (Sep 16, 6:00 AM)
Average77 °F75%30.05 "Hg
* Reported Sep 10 9:00 AM — Sep 25 9:00 AM, Moroni, Weather by CustomWeather, © 2016

Note: Actual official high and low records may vary slightly from our data, if they occured in-between our weather recording intervals... More about our weather records

Advertising

Moroni Weather History for the Previous 24 Hours

Scroll right to see more
 ConditionsComfort  
Time TempWeatherWind HumidityBarometerVisibility
9:00 AM
Sun, Sep 25
81 °FPassing clouds.5 mph74%30.01 "HgN/A
8:00 AM75 °FPassing clouds.7 mph78%29.98 "HgN/A
7:00 AM72 °FPassing clouds.No wind88%29.98 "HgN/A
6:00 AM70 °FPassing clouds.3 mph88%30.01 "HgN/A
5:00 AM66 °FMild.N/A73%29.95 "HgN/A
1:00 AM72 °FPassing clouds.1 mph88%29.98 "HgN/A
12:00 AM73 °FPassing clouds.2 mph83%30.01 "HgN/A
11:00 PM
Sat, Sep 24
73 °FPassing clouds.3 mph83%30.04 "HgN/A
10:00 PM73 °FPassing clouds.2 mph89%30.04 "HgN/A
9:00 PM77 °FPassing clouds.2 mph83%30.01 "HgN/A
8:00 PM79 °FPassing clouds.2 mph79%30.01 "HgN/A
7:00 PM79 °FPassing clouds.3 mph79%30.01 "HgN/A
6:00 PM79 °FPartly sunny.3 mph79%29.98 "HgN/A
5:00 PM81 °FScattered clouds.5 mph74%29.98 "HgN/A
4:00 PM81 °FScattered clouds.6 mph74%29.95 "HgN/A
3:00 PM81 °FScattered clouds.7 mph74%29.98 "HgN/A
2:00 PM81 °FScattered clouds.5 mph74%29.98 "HgN/A
1:00 PM81 °FPartly sunny.3 mph74%30.01 "HgN/A
12:00 PM81 °FScattered showers. Broken clouds.3 mph74%30.04 "HgN/A
11:00 AM81 °FBroken clouds.6 mph74%30.04 "HgN/A
10:00 AM81 °FScattered clouds.5 mph70%30.04 "HgN/A
Weather by CustomWeather, © 2016

See weather overviewHow to use our weather pages